DECAYED

DMSP 5D-2 F11 DEB, 28318 (Decayed)

Orbit data source: Space-Track

DMSP 5D-2 F11 DEB, 28318 was space debris in SSO originally from a launch on Thu, 28 Nov 1991 UTC launched from the Air Force Western Test Range (AFWTR). Debris objects in space refer to the collection of defunct objects orbiting the Earth. Examples of debris include non-operational satellites, rocket bodies, and fragments generated from explosions, collisions, or faulty payload assembly.

Not visible in the next 10 days
Identifier
28318, 1991-082AF
Orbit
Decayed
Last TLE update
9 months ago
Origin
Manufacturer
Unknown
Mission
Decayed spacecraft
Bus & Motor
Unknown
Mass
Unknown
Launch date (UTC)
1991-11-28 (34 years ago)
Launch vehicle
Unknown
Launch site
Air Force Western Test Range (AFWTR)
Object type
Payload
Rocket body
Debris
Shape & HBR
Unknown
Radar Cross Section
Small (<0.1 m²)

Expand to show TLE details & history

TLE from 9 months ago
0 DMSP 5D-2 F11 DEB
1 28318U 91082AF  24277.36689093  .01739165  00000-0  37186-1 0  9996
2 28318  98.7140  58.6540 0035538 280.1410 140.5998 15.40793410 63831
Epoch: 2024-10-03T08:48Z
TLE epoch observation values (Epoch: 2024-10-03T08:48:19.376Z)
Latitude
59.92877°
Longitude
-101.24268°
Altitude
472.729 km
Speed
7.625 km/s
True Right ascension
02h 53m 33s
True Declination
59° 46' 23"
Sunlit
Object was in full shadow at epoch
Visualization orbit readout
Visualization observer readout
Orbital elements
Apogee altitude
464.999 km
Perigee altitude
416.533 km
Semi-major axis
6,818.903 km
Eccentricity
0.00355
Inclination
98.714°
RAAN
58.654°
Arg. of periapsis
280.141°
True anomaly
140.8574°
Mean anomaly
140.5998°
Eccentric anomaly
140.72869°
Mean motion
3.85453 °/min
Orbital period
93.4 mins
BSTAR
0.037186
Loading maneuver chart data...
Loading SW <> Apogee altitude chart data...
|